Location: Seattle
(47.6064°N, 122.3308°W)
Time: 03:35:50
(UTC-08:00)

N. Korean satellite - Pass Details

Date: 31 October 2020
Orbit: 453 x 503 km, 97.2° (Epoch: 03 December)

Event Time Altitude Azimuth Distance (km) Brightness Sun altitude
Rises 18:14:46 0° 184° (S) 2,530 10.5 -4.4°
Reaches altitude 10° 18:16:56 10° 193° (SSW) 1,646 9.7 -4.8°
Maximum altitude 18:20:14 37° 262° (W) 756 8.4 -5.3°
Drops below altitude 10° 18:23:31 10° 331° (NNW) 1,633 9.4 -5.8°
Sets 18:25:40 0° 340° (NNW) 2,507 10.3 -6.2°
